EW7338 Weather Reports


Display with metric or nautical units.
time (UTC)temp
F
wind
direction
speed
MPH
gust
MPH
rain 1hr
in
rain 24hr
in
rain mn
in
humidity
%
barometer
mb
20260508033007 52 16 0.0 0.0 0.00 0.23 0.17 70 1006.1
20260508031536 53 32 0.0 1.0 0.00 0.23 0.17 69 1006.1
20260508030001 53 32 0.0 4.0 0.00 0.23 0.17 69 1005.9
20260508024541 53 335 0.0 0.0 0.00 0.30 0.17 73 1005.7
20260508023100 53 46 0.0 0.0 0.00 0.30 0.17 73 1005.5
20260508021522 54 344 0.0 5.0 0.00 0.30 0.17 70 1005.4
20260508020046 53 330 0.0 0.0 0.00 0.30 0.17 75 1005.1
20260508014527 53 321 0.0 0.0 0.00 0.30 0.17 77 1004.8
20260508013045 54 318 0.0 1.0 0.00 0.30 0.17 75 1004.4
20260508011505 54 314 0.0 0.0 0.00 0.30 0.17 74 1004.3
20260508010034 55 17 0.0 0.0 0.00 0.30 0.17 78 1003.9
20260508004513 56 241 0.0 1.0 0.00 0.30 0.17 73 1004.0
20260508003052 56 63 0.0 4.0 0.00 0.30 0.17 72 1004.0
20260508001559 56 279 0.0 2.0 0.00 0.30 0.17 80 1004.0
20260508000024 57 158 0.0 4.0 0.00 0.30 0.17 88 1003.9
20260507234555 57 145 0.0 1.0 0.00 0.30 0.17 89 1003.6
20260507233031 57 351 0.0 5.0 0.00 0.30 0.17 90 1003.3
20260507231557 57 98 0.0 5.0 0.00 0.30 0.17 91 1003.1
20260507230028 57 131 0.0 2.0 0.00 0.30 0.17 91 1003.0
20260507224615 57 124 0.0 1.0 0.00 0.30 0.17 92 1002.9
20260507223027 57 93 0.0 4.0 0.00 0.30 0.17 90 1002.7
20260507221600 58 88 1.0 5.0 0.00 0.30 0.17 89 1002.5
20260507220024 58 160 2.0 5.0 0.00 0.30 0.17 88 1002.6
20260507214603 58 94 1.0 5.0 0.00 0.30 0.17 90 1002.5
20260507213026 56 117 0.0 2.0 0.00 0.30 0.17 94 1002.6
20260507211626 56 108 0.0 3.0 0.00 0.30 0.17 93 1002.6
20260507210031 56 104 2.0 4.0 0.00 0.30 0.17 94 1002.4
20260507204601 55 147 0.0 4.0 0.00 0.30 0.17 96 1002.5
20260507203021 55 150 2.0 4.0 0.02 0.30 0.17 94 1002.4
20260507201609 55 122 0.0 4.0 0.02 0.30 0.17 96 1002.4
20260507200014 54 104 3.0 5.0 0.02 0.30 0.17 96 1002.9
20260507194543 54 131 0.0 4.0 0.02 0.31 0.17 97 1003.2
20260507193005 54 152 0.0 1.0 0.00 0.28 0.15 97 1003.3
20260507191535 54 154 0.0 1.0 0.02 0.28 0.15 97 1003.6
20260507190005 54 191 0.0 3.0 0.02 0.28 0.15 96 1003.5
20260507184531 54 124 0.0 1.0 0.04 0.28 0.15 96 1003.8
20260507183059 55 115 0.0 1.0 0.05 0.28 0.15 96 1003.8
20260507181526 55 93 0.0 0.0 0.03 0.27 0.13 96 1003.8
20260507180056 55 110 0.0 1.0 0.09 0.27 0.13 96 1003.6
20260507174514 55 358 0.0 0.0 0.08 0.25 0.11 96 1003.7
20260507173043 56 117 0.0 0.0 0.09 0.24 0.10 96 1003.6
20260507171514 56 103 0.0 0.0 0.09 0.24 0.10 94 1003.8
20260507170037 57 143 0.0 1.0 0.03 0.18 0.04 93 1003.6
20260507164507 58 58 0.0 0.0 0.02 0.18 0.03 92 1003.5
20260507163039 58 360 0.0 0.0 0.00 0.16 0.01 88 1003.5
20260507161510 58 356 0.0 0.0 0.00 0.16 0.01 89 1003.6
20260507160043 58 356 0.0 0.0 0.00 0.16 0.01 87 1003.8
20260507154513 58 51 0.0 0.0 0.00 0.16 0.01 87 1003.9
20260507153045 58 51 0.0 0.0 0.00 0.16 0.01 87 1003.9
20260507151515 58 19 0.0 0.0 0.00 0.16 0.01 86 1003.9
20260507150046 58 39 0.0 0.0 0.00 0.16 0.01 86 1003.9
20260507144519 58 39 0.0 0.0 0.00 0.17 0.01 88 1003.9
20260507143049 58 39 0.0 0.0 0.00 0.17 0.01 88 1003.7
20260507141519 58 37 0.0 0.0 0.00 0.17 0.01 87 1003.7
20260507140104 58 39 0.0 0.0 0.00 0.17 0.01 87 1003.4
20260507134520 58 11 0.0 0.0 0.00 0.17 0.01 89 1004.0